| time (UTC) | temp C | wind direction | speed KPH | gust KPH | rain 1hr cm | rain 24hr cm | rain mn cm | humidity % | barometer mb |
| 20260503233627 | 12 | 222 | 3.2 | 3.2 | 0.00 | 0.00 | 0.00 | 65 | 1011.0 |
| 20260503233122 | 12 | 187 | 6.4 | 6.4 | 0.00 | 0.00 | 0.00 | 66 | 1011.0 |
| 20260503232619 | 13 | 231 | 12.9 | 17.7 | 0.00 | 0.00 | 0.00 | 65 | 1010.6 |
| 20260503232116 | 13 | 218 | 9.7 | 9.7 | 0.00 | 0.00 | 0.00 | 64 | 1010.6 |
| 20260503231614 | 13 | 11 | 4.8 | 6.4 | 0.00 | 0.00 | 0.00 | 62 | 1010.6 |
| 20260503231111 | 13 | 246 | 6.4 | 6.4 | 0.00 | 0.00 | 0.00 | 60 | 1010.2 |
| 20260503230608 | 14 | 190 | 4.8 | 4.8 | 0.00 | 0.00 | 0.00 | 58 | 1010.2 |
| 20260503230105 | 14 | 301 | 9.7 | 9.7 | 0.00 | 0.00 | 0.00 | 55 | 1010.2 |
| 20260503225602 | 15 | 244 | 9.7 | 11.3 | 0.00 | 0.00 | 0.00 | 45 | 1010.2 |
| 20260503225056 | 15 | 242 | 9.7 | 9.7 | 0.00 | 0.00 | 0.00 | 44 | 1010.2 |
| 20260503224555 | 15 | 234 | 17.7 | 19.3 | 0.00 | 0.00 | 0.00 | 42 | 1010.6 |
| 20260503224052 | 15 | 265 | 6.4 | 6.4 | 0.00 | 0.00 | 0.00 | 42 | 1010.6 |
| 20260503223550 | 16 | 180 | 3.2 | 3.2 | 0.00 | 0.00 | 0.00 | 44 | 1010.6 |
| 20260503223045 | 16 | 216 | 9.7 | 9.7 | 0.00 | 0.00 | 0.00 | 42 | 1010.2 |
| 20260503222544 | 16 | 198 | 8.0 | 8.0 | 0.00 | 0.00 | 0.00 | 42 | 1010.2 |
| 20260503222041 | 16 | 280 | 12.9 | 14.5 | 0.00 | 0.00 | 0.00 | 43 | 1010.2 |
| 20260503221539 | 16 | 237 | 9.7 | 9.7 | 0.00 | 0.00 | 0.00 | 43 | 1010.2 |
| 20260503221036 | 16 | 223 | 16.1 | 17.7 | 0.00 | 0.00 | 0.00 | 42 | 1010.2 |
| 20260503220532 | 16 | 274 | 16.1 | 16.1 | 0.00 | 0.00 | 0.00 | 42 | 1010.2 |
| 20260503220029 | 15 | 226 | 16.1 | 17.7 | 0.00 | 0.00 | 0.00 | 42 | 1010.6 |
| 20260503215527 | 15 | 235 | 17.7 | 17.7 | 0.00 | 0.00 | 0.00 | 41 | 1010.6 |
| 20260503215024 | 15 | 217 | 8.0 | 8.0 | 0.00 | 0.00 | 0.00 | 42 | 1010.6 |
| 20260503214522 | 16 | 220 | 16.1 | 17.7 | 0.00 | 0.00 | 0.00 | 42 | 1011.0 |
| 20260503214018 | 16 | 204 | 24.1 | 25.7 | 0.00 | 0.00 | 0.00 | 40 | 1011.0 |
| 20260503213517 | 16 | 240 | 16.1 | 17.7 | 0.00 | 0.00 | 0.00 | 41 | 1011.0 |
| 20260503213013 | 16 | 226 | 12.9 | 14.5 | 0.00 | 0.00 | 0.00 | 40 | 1010.6 |
| 20260503212510 | 16 | 244 | 11.3 | 12.9 | 0.00 | 0.00 | 0.00 | 42 | 1010.6 |
| 20260503212008 | 16 | 230 | 16.1 | 17.7 | 0.00 | 0.00 | 0.00 | 40 | 1010.6 |
| 20260503211505 | 16 | 234 | 11.3 | 14.5 | 0.00 | 0.00 | 0.00 | 40 | 1011.0 |
| 20260503211000 | 16 | 238 | 16.1 | 17.7 | 0.00 | 0.00 | 0.00 | 40 | 1011.0 |
| 20260503210457 | 16 | 215 | 11.3 | 14.5 | 0.00 | 0.00 | 0.00 | 40 | 1011.0 |
| 20260503205957 | 16 | 221 | 17.7 | 19.3 | 0.00 | 0.00 | 0.00 | 39 | 1010.6 |
| 20260503205454 | 16 | 247 | 6.4 | 8.0 | 0.00 | 0.00 | 0.00 | 39 | 1010.6 |
| 20260503204951 | 16 | 228 | 16.1 | 17.7 | 0.00 | 0.00 | 0.00 | 40 | 1010.6 |
| 20260503204448 | 16 | 238 | 19.3 | 20.9 | 0.00 | 0.00 | 0.00 | 40 | 1011.0 |
| 20260503203945 | 16 | 236 | 14.5 | 17.7 | 0.00 | 0.00 | 0.00 | 40 | 1011.0 |
| 20260503203442 | 16 | 241 | 19.3 | 20.9 | 0.00 | 0.00 | 0.00 | 39 | 1011.0 |
| 20260503202939 | 16 | 223 | 19.3 | 20.9 | 0.00 | 0.00 | 0.00 | 39 | 1011.3 |
| 20260503202437 | 16 | 222 | 17.7 | 19.3 | 0.00 | 0.00 | 0.00 | 39 | 1011.3 |
| 20260503201936 | 16 | 230 | 16.1 | 16.1 | 0.00 | 0.00 | 0.00 | 40 | 1011.3 |
| 20260503201432 | 16 | 240 | 9.7 | 11.3 | 0.00 | 0.00 | 0.00 | 41 | 1011.3 |
| 20260503200930 | 16 | 224 | 16.1 | 17.7 | 0.00 | 0.00 | 0.00 | 41 | 1011.3 |
| 20260503200426 | 16 | 217 | 9.7 | 11.3 | 0.00 | 0.00 | 0.00 | 41 | 1011.3 |
| 20260503195923 | 16 | 235 | 8.0 | 9.7 | 0.00 | 0.00 | 0.00 | 41 | 1011.3 |
| 20260503195420 | 16 | 185 | 8.0 | 9.7 | 0.00 | 0.00 | 0.00 | 42 | 1011.3 |
| 20260503194916 | 16 | 218 | 9.7 | 11.3 | 0.00 | 0.00 | 0.00 | 40 | 1011.3 |
| 20260503194413 | 16 | 192 | 11.3 | 12.9 | 0.00 | 0.00 | 0.00 | 41 | 1011.6 |
| 20260503193909 | 16 | 205 | 9.7 | 9.7 | 0.00 | 0.00 | 0.00 | 42 | 1011.6 |
| 20260503193404 | 16 | 226 | 14.5 | 16.1 | 0.00 | 0.00 | 0.00 | 42 | 1011.6 |
| 20260503192900 | 16 | 241 | 14.5 | 16.1 | 0.00 | 0.00 | 0.00 | 40 | 1012.0 |
| 20260503192356 | 16 | 235 | 14.5 | 16.1 | 0.00 | 0.00 | 0.00 | 40 | 1012.0 |
| 20260503191853 | 16 | 229 | 14.5 | 16.1 | 0.00 | 0.00 | 0.00 | 41 | 1012.0 |
| 20260503191350 | 16 | 244 | 9.7 | 9.7 | 0.00 | 0.00 | 0.00 | 39 | 1012.3 |
| 20260503190846 | 16 | 210 | 14.5 | 16.1 | 0.00 | 0.00 | 0.00 | 42 | 1012.3 |
| 20260503190344 | 16 | 211 | 16.1 | 17.7 | 0.00 | 0.00 | 0.00 | 40 | 1012.3 |
| 20260503185841 | 16 | 246 | 9.7 | 9.7 | 0.00 | 0.00 | 0.00 | 39 | 1012.7 |
| 20260503185337 | 16 | 246 | 9.7 | 11.3 | 0.00 | 0.00 | 0.00 | 41 | 1012.7 |
| 20260503184837 | 15 | 227 | 17.7 | 20.9 | 0.00 | 0.00 | 0.00 | 40 | 1012.7 |
| 20260503184333 | 16 | 227 | 11.3 | 12.9 | 0.00 | 0.00 | 0.00 | 41 | 1012.7 |
| 20260503183829 | 16 | 205 | 19.3 | 20.9 | 0.00 | 0.00 | 0.00 | 39 | 1012.7 |
| 20260503183326 | 16 | 228 | 16.1 | 17.7 | 0.00 | 0.00 | 0.00 | 41 | 1012.7 |
| 20260503182824 | 16 | 246 | 16.1 | 16.1 | 0.00 | 0.00 | 0.00 | 40 | 1012.7 |
| 20260503182323 | 16 | 284 | 11.3 | 14.5 | 0.00 | 0.00 | 0.00 | 41 | 1012.7 |
| 20260503181819 | 16 | 221 | 17.7 | 19.3 | 0.00 | 0.00 | 0.00 | 42 | 1012.7 |
| 20260503181317 | 16 | 240 | 9.7 | 11.3 | 0.00 | 0.00 | 0.00 | 40 | 1013.0 |
| 20260503180813 | 16 | 198 | 12.9 | 14.5 | 0.00 | 0.00 | 0.00 | 42 | 1013.0 |
| 20260503180311 | 16 | 248 | 11.3 | 11.3 | 0.00 | 0.00 | 0.00 | 41 | 1013.0 |
| 20260503175807 | 16 | 218 | 12.9 | 17.7 | 0.00 | 0.00 | 0.00 | 42 | 1013.0 |
| 20260503175305 | 15 | 241 | 11.3 | 12.9 | 0.00 | 0.00 | 0.00 | 42 | 1013.0 |
| 20260503174800 | 15 | 196 | 14.5 | 16.1 | 0.00 | 0.00 | 0.00 | 41 | 1013.0 |
| 20260503174259 | 15 | 240 | 9.7 | 11.3 | 0.00 | 0.00 | 0.00 | 40 | 1013.3 |
| 20260503173754 | 15 | 261 | 17.7 | 17.7 | 0.00 | 0.00 | 0.00 | 43 | 1013.3 |
| 20260503173250 | 15 | 223 | 16.1 | 17.7 | 0.00 | 0.00 | 0.00 | 42 | 1013.3 |
| 20260503172747 | 16 | 233 | 12.9 | 16.1 | 0.00 | 0.00 | 0.00 | 44 | 1013.0 |
| 20260503172244 | 15 | 208 | 11.3 | 14.5 | 0.00 | 0.00 | 0.00 | 44 | 1013.0 |
| 20260503171740 | 15 | 252 | 12.9 | 16.1 | 0.00 | 0.00 | 0.00 | 46 | 1013.0 |
| 20260503171238 | 15 | 224 | 9.7 | 11.3 | 0.00 | 0.00 | 0.00 | 49 | 1013.7 |
| 20260503170735 | 15 | 290 | 3.2 | 3.2 | 0.00 | 0.00 | 0.00 | 47 | 1013.7 |
| 20260503170232 | 15 | 156 | 6.4 | 6.4 | 0.00 | 0.00 | 0.00 | 50 | 1013.7 |
| 20260503160153 | 14 | 215 | 9.7 | 9.7 | 0.00 | 0.00 | 0.00 | 54 | 1014.4 |
| 20260503150623 | 13 | 226 | 9.7 | 11.3 | 0.00 | 0.00 | 0.00 | 57 | 1014.7 |
| 20260503150119 | 12 | 170 | 4.8 | 4.8 | 0.00 | 0.00 | 0.00 | 58 | 1014.7 |
| 20260503131013 | 8 | 228 | 8.0 | 8.0 | 0.00 | 0.00 | 0.00 | 62 | 1015.4 |
| 20260503130511 | 8 | 252 | 6.4 | 6.4 | 0.00 | 0.00 | 0.00 | 61 | 1015.4 |
| 20260503110401 | 1 | 216 | 3.2 | 3.2 | 0.00 | 0.00 | 0.00 | 79 | 1015.4 |
| 20260503090252 | 2 | 204 | 6.4 | 6.4 | 0.00 | 0.00 | 0.00 | 76 | 1015.4 |
| 20260503081220 | 2 | 198 | 3.2 | 3.2 | 0.00 | 0.00 | 0.00 | 78 | 1015.4 |
| 20260503080715 | 2 | 162 | 3.2 | 3.2 | 0.00 | 0.00 | 0.00 | 78 | 1015.4 |
| 20260503080212 | 2 | 223 | 3.2 | 3.2 | 0.00 | 0.00 | 0.00 | 79 | 1015.4 |
| 20260503072649 | 2 | 210 | 4.8 | 4.8 | 0.00 | 0.00 | 0.00 | 76 | 1015.4 |
| 20260503072146 | 3 | 228 | 6.4 | 6.4 | 0.00 | 0.00 | 0.00 | 75 | 1015.4 |
| 20260503071643 | 3 | 230 | 4.8 | 6.4 | 0.00 | 0.00 | 0.00 | 75 | 1015.4 |
| 20260503071139 | 3 | 192 | 4.8 | 4.8 | 0.00 | 0.00 | 0.00 | 74 | 1015.4 |
| 20260503070636 | 3 | 228 | 6.4 | 6.4 | 0.00 | 0.00 | 0.00 | 75 | 1015.4 |
| 20260503070135 | 3 | 236 | 4.8 | 4.8 | 0.00 | 0.00 | 0.00 | 75 | 1015.4 |
| 20260503060104 | 3 | 222 | 6.4 | 6.4 | 0.00 | 0.00 | 0.00 | 72 | 1016.0 |
| 20260503055055 | 4 | 168 | 4.8 | 4.8 | 0.00 | 0.00 | 0.00 | 70 | 1016.0 |
| 20260503054551 | 4 | 228 | 4.8 | 4.8 | 0.00 | 0.00 | 0.00 | 70 | 1016.0 |
| 20260503054049 | 4 | 218 | 4.8 | 4.8 | 0.00 | 0.00 | 0.00 | 69 | 1016.0 |
| 20260503053547 | 4 | 210 | 6.4 | 6.4 | 0.00 | 0.00 | 0.00 | 69 | 1016.0 |
| 20260503053044 | 4 | 228 | 4.8 | 4.8 | 0.00 | 0.00 | 0.00 | 69 | 1015.7 |
| 20260503052541 | 4 | 228 | 6.4 | 6.4 | 0.00 | 0.00 | 0.00 | 69 | 1015.7 |
| 20260503052037 | 5 | 234 | 4.8 | 4.8 | 0.00 | 0.00 | 0.00 | 68 | 1015.7 |
| 20260503051533 | 5 | 234 | 4.8 | 4.8 | 0.00 | 0.00 | 0.00 | 67 | 1016.0 |
| 20260503051031 | 5 | 234 | 4.8 | 6.4 | 0.00 | 0.00 | 0.00 | 68 | 1016.0 |
| 20260503050526 | 5 | 216 | 4.8 | 4.8 | 0.00 | 0.00 | 0.00 | 67 | 1016.0 |
| 20260503050024 | 5 | 222 | 4.8 | 4.8 | 0.00 | 0.00 | 0.00 | 67 | 1016.0 |
| 20260503045521 | 5 | 240 | 4.8 | 4.8 | 0.00 | 0.00 | 0.00 | 67 | 1016.0 |
| 20260503045018 | 5 | 234 | 4.8 | 4.8 | 0.00 | 0.00 | 0.00 | 67 | 1016.0 |
| 20260503044514 | 5 | 184 | 4.8 | 4.8 | 0.00 | 0.00 | 0.00 | 68 | 1016.0 |
| 20260503044012 | 5 | 234 | 3.2 | 3.2 | 0.00 | 0.00 | 0.00 | 69 | 1016.0 |
| 20260503043508 | 5 | 203 | 4.8 | 4.8 | 0.00 | 0.00 | 0.00 | 69 | 1016.0 |
| 20260503043005 | 5 | 228 | 3.2 | 3.2 | 0.00 | 0.00 | 0.00 | 68 | 1015.7 |
| 20260503042502 | 5 | 205 | 3.2 | 3.2 | 0.00 | 0.00 | 0.00 | 67 | 1015.7 |
| 20260503041958 | 5 | 216 | 4.8 | 4.8 | 0.00 | 0.00 | 0.00 | 65 | 1015.7 |
| 20260503041455 | 6 | 204 | 4.8 | 4.8 | 0.00 | 0.00 | 0.00 | 64 | 1015.7 |
| 20260503040953 | 6 | 224 | 4.8 | 4.8 | 0.00 | 0.00 | 0.00 | 64 | 1015.7 |
| 20260503040450 | 5 | 204 | 6.4 | 6.4 | 0.00 | 0.00 | 0.00 | 65 | 1015.7 |
| 20260503035947 | 6 | 220 | 4.8 | 4.8 | 0.00 | 0.00 | 0.00 | 67 | 1016.0 |
| 20260503035444 | 6 | 222 | 4.8 | 4.8 | 0.00 | 0.00 | 0.00 | 66 | 1016.0 |
| 20260503034942 | 6 | 206 | 3.2 | 3.2 | 0.00 | 0.00 | 0.00 | 66 | 1016.0 |
| 20260503034438 | 6 | 225 | 6.4 | 6.4 | 0.00 | 0.00 | 0.00 | 64 | 1016.0 |
| 20260503033935 | 6 | 220 | 4.8 | 4.8 | 0.00 | 0.00 | 0.00 | 64 | 1016.0 |
| 20260503033433 | 6 | 228 | 4.8 | 4.8 | 0.00 | 0.00 | 0.00 | 64 | 1016.0 |
| 20260503032931 | 6 | 228 | 6.4 | 6.4 | 0.00 | 0.00 | 0.00 | 64 | 1016.5 |
| 20260503032429 | 6 | 228 | 4.8 | 4.8 | 0.00 | 0.00 | 0.00 | 64 | 1016.5 |
| 20260503031926 | 6 | 208 | 3.2 | 3.2 | 0.00 | 0.00 | 0.00 | 66 | 1016.5 |
| 20260503031424 | 6 | 234 | 3.2 | 3.2 | 0.00 | 0.00 | 0.00 | 68 | 1016.5 |
| 20260503030920 | 6 | 224 | 3.2 | 3.2 | 0.00 | 0.00 | 0.00 | 68 | 1016.5 |
| 20260503030417 | 6 | 223 | 3.2 | 3.2 | 0.00 | 0.00 | 0.00 | 70 | 1016.5 |
| 20260503025914 | 6 | 192 | 3.2 | 3.2 | 0.00 | 0.00 | 0.00 | 71 | 1016.5 |
| 20260503025411 | 6 | 224 | 3.2 | 3.2 | 0.00 | 0.00 | 0.00 | 70 | 1016.5 |
| 20260503024908 | 6 | 202 | 0.0 | 0.0 | 0.00 | 0.00 | 0.00 | 69 | 1016.5 |
| 20260503024405 | 6 | 224 | 0.0 | 0.0 | 0.00 | 0.00 | 0.00 | 68 | 1016.5 |
| 20260503023902 | 6 | 212 | 0.0 | 0.0 | 0.00 | 0.00 | 0.00 | 69 | 1016.5 |
| 20260503023359 | 6 | 216 | 0.0 | 0.0 | 0.00 | 0.00 | 0.00 | 68 | 1016.5 |
| 20260503022856 | 6 | 228 | 0.0 | 0.0 | 0.00 | 0.00 | 0.00 | 67 | 1016.0 |
| 20260503022355 | 6 | 204 | 0.0 | 0.0 | 0.00 | 0.00 | 0.00 | 66 | 1016.0 |
| 20260503021852 | 6 | 210 | 0.0 | 0.0 | 0.00 | 0.00 | 0.00 | 67 | 1016.0 |
| 20260503021349 | 6 | 202 | 0.0 | 0.0 | 0.00 | 0.00 | 0.00 | 68 | 1016.0 |
| 20260503020846 | 6 | 201 | 0.0 | 0.0 | 0.00 | 0.00 | 0.00 | 67 | 1016.0 |
| 20260503020344 | 6 | 210 | 0.0 | 0.0 | 0.00 | 0.00 | 0.00 | 65 | 1016.0 |
| 20260503015840 | 7 | 224 | 0.0 | 0.0 | 0.00 | 0.00 | 0.00 | 62 | 1016.5 |
| 20260503015337 | 7 | 234 | 0.0 | 0.0 | 0.00 | 0.00 | 0.00 | 62 | 1016.5 |
| 20260503014833 | 7 | 216 | 3.2 | 3.2 | 0.00 | 0.00 | 0.00 | 61 | 1016.5 |
| 20260503014331 | 7 | 228 | 3.2 | 3.2 | 0.00 | 0.00 | 0.00 | 59 | 1016.0 |
| 20260503013828 | 7 | 222 | 3.2 | 3.2 | 0.00 | 0.00 | 0.00 | 59 | 1016.0 |
| 20260503013325 | 6 | 188 | 3.2 | 3.2 | 0.00 | 0.00 | 0.00 | 62 | 1016.0 |
| 20260503012822 | 6 | 204 | 0.0 | 0.0 | 0.00 | 0.00 | 0.00 | 64 | 1016.5 |
| 20260503012320 | 6 | 218 | 0.0 | 0.0 | 0.00 | 0.00 | 0.00 | 69 | 1016.5 |
| 20260503011816 | 7 | 190 | 0.0 | 0.0 | 0.00 | 0.00 | 0.00 | 67 | 1016.5 |
| 20260503011313 | 7 | 204 | 0.0 | 0.0 | 0.00 | 0.00 | 0.00 | 63 | 1016.0 |
| 20260503010809 | 7 | 222 | 3.2 | 3.2 | 0.00 | 0.00 | 0.00 | 61 | 1016.0 |
| 20260503010307 | 7 | 228 | 0.0 | 0.0 | 0.00 | 0.00 | 0.00 | 59 | 1016.0 |
| 20260503005804 | 7 | 218 | 0.0 | 0.0 | 0.00 | 0.00 | 0.00 | 61 | 1016.0 |
| 20260503005304 | 7 | 216 | 0.0 | 0.0 | 0.00 | 0.00 | 0.00 | 61 | 1016.0 |
| 20260503004757 | 7 | 223 | 0.0 | 0.0 | 0.00 | 0.00 | 0.00 | 62 | 1016.0 |
| 20260503004255 | 7 | 222 | 0.0 | 0.0 | 0.00 | 0.00 | 0.00 | 61 | 1015.7 |
| 20260503003752 | 7 | 225 | 0.0 | 0.0 | 0.00 | 0.00 | 0.00 | 62 | 1015.7 |
| 20260503003249 | 7 | 228 | 0.0 | 0.0 | 0.00 | 0.00 | 0.00 | 62 | 1015.7 |
| 20260503002746 | 7 | 230 | 0.0 | 0.0 | 0.00 | 0.00 | 0.00 | 61 | 1015.7 |
| 20260503002243 | 7 | 218 | 0.0 | 0.0 | 0.00 | 0.00 | 0.00 | 57 | 1015.7 |
| 20260503001739 | 7 | 218 | 0.0 | 0.0 | 0.00 | 0.00 | 0.00 | 58 | 1015.7 |
| 20260503001235 | 7 | 218 | 0.0 | 0.0 | 0.00 | 0.00 | 0.00 | 58 | 1015.7 |
| 20260503000733 | 7 | 224 | 0.0 | 0.0 | 0.00 | 0.00 | 0.00 | 58 | 1015.7 |
| 20260503000233 | 7 | 223 | 0.0 | 0.0 | 0.00 | 0.00 | 0.00 | 57 | 1015.7 |
| 20260502235727 | 7 | 242 | 0.0 | 0.0 | 0.00 | 0.00 | 0.00 | 58 | 1015.7 |
| 20260502235225 | 7 | 258 | 0.0 | 0.0 | 0.00 | 0.00 | 0.00 | 55 | 1015.7 |
| 20260502234721 | 7 | 276 | 0.0 | 0.0 | 0.00 | 0.00 | 0.00 | 57 | 1015.7 |
| 20260502234219 | 7 | 263 | 0.0 | 0.0 | 0.00 | 0.00 | 0.00 | 56 | 1015.7 |
| 20260502233714 | 8 | 252 | 0.0 | 0.0 | 0.00 | 0.00 | 0.00 | 57 | 1015.7 |